When you browse on this site, cookies collect data to enhance your experience and personalize the content and advertising you see.
Visit our Privacy Policy to learn more. By continuing to use the site, you agree to this use of cookies and data.
  • In United Kingdom
  • List of Countries
  • For 7 days
  • Water Temperature
  • Satellite Maps
  • Weather Map
  • Weather Widgets
  • user-avatar
    Login

    Hourly Weather Piilo

    Today, 19 June, Wednesday

    Time Temperature Precipitation Wind Pressure Humidity
    00:00 +19°C° 0 mm 1 mps 736 mmHg 94%
    01:00 +19°C° 0 mm 1 mps 735 mmHg 95%
    02:00 +18°C° 0 mm 1 mps 735 mmHg 95%
    03:00 +18°C° 0 mm 1 mps 735 mmHg 95%
    04:00 +18°C° 0 mm 1 mps 735 mmHg 95%
    05:00 +18°C° 0 mm 1 mps 735 mmHg 96%
    06:00 +20°C° 0 mm 1 mps 735 mmHg 93%
    07:00 +20°C° 0 mm 2 mps 735 mmHg 91%
    08:00 +23°C° 0 mm 2 mps 735 mmHg 88%
    09:00 +24°C° 0 mm 3 mps 735 mmHg 83%
    10:00 +26°C° 0 mm 3 mps 735 mmHg 78%
    11:00 +27°C° 0 mm 3 mps 735 mmHg 73%
    12:00 +27°C° 1.3 mm 4 mps 735 mmHg 75%
    13:00 +27°C° 1.3 mm 4 mps 734 mmHg 76%
    14:00 +27°C° 1.3 mm 4 mps 734 mmHg 78%
    15:00 +27°C° 1.4 mm 4 mps 734 mmHg 80%
    16:00 +26°C° 1.4 mm 4 mps 733 mmHg 82%
    17:00 +25°C° 1.4 mm 4 mps 733 mmHg 84%
    18:00 +24°C° 0.1 mm 3 mps 733 mmHg 86%
    19:00 +23°C° 0.1 mm 2 mps 733 mmHg 87%
    20:00 +23°C° 0.1 mm 1 mps 733 mmHg 88%
    21:00 +22°C° 0 mm 1 mps 733 mmHg 89%
    22:00 +22°C° 0 mm 1 mps 733 mmHg 90%
    23:00 +21°C° 0 mm 1 mps 733 mmHg 90%

    Tomorrow, 20 June, Thursday

    Time Temperature Precipitation Wind Pressure Humidity
    00:00 +21°C° 0 mm 1 mps 733 mmHg 90%
    01:00 +19°C° 0 mm 2 mps 733 mmHg 90%
    02:00 +19°C° 0 mm 2 mps 733 mmHg 91%
    03:00 +19°C° 0 mm 1 mps 733 mmHg 90%
    04:00 +19°C° 0 mm 1 mps 733 mmHg 89%
    05:00 +19°C° 0 mm 1 mps 732 mmHg 88%
    06:00 +21°C° 0 mm 1 mps 733 mmHg 83%
    07:00 +23°C° 0 mm 1 mps 733 mmHg 78%
    08:00 +25°C° 0 mm 1 mps 733 mmHg 73%
    09:00 +26°C° 0.2 mm 1 mps 733 mmHg 70%
    10:00 +27°C° 0.2 mm 1 mps 733 mmHg 67%
    11:00 +28°C° 0.2 mm 1 mps 733 mmHg 64%
    12:00 +29°C° 0.5 mm 1 mps 733 mmHg 62%
    13:00 +29°C° 0.5 mm 1 mps 733 mmHg 60%
    14:00 +30°C° 0.5 mm 1 mps 733 mmHg 58%
    15:00 +29°C° 0.8 mm 1 mps 732 mmHg 63%
    16:00 +29°C° 0.8 mm 2 mps 732 mmHg 68%
    17:00 +28°C° 0.8 mm 2 mps 732 mmHg 73%
    18:00 +27°C° 0.3 mm 2 mps 732 mmHg 77%
    19:00 +26°C° 0.3 mm 2 mps 732 mmHg 82%
    20:00 +24°C° 0.3 mm 2 mps 732 mmHg 86%
    21:00 +23°C° 0 mm 2 mps 732 mmHg 87%
    22:00 +22°C° 0 mm 1 mps 733 mmHg 88%
    23:00 +22°C° 0 mm 1 mps 733 mmHg 89%

    Day after tomorrow, 21 June, Friday

    Time Temperature Precipitation Wind Pressure Humidity
    00:00 +21°C° 0 mm 1 mps 733 mmHg 89%
    01:00 +21°C° 0 mm 1 mps 733 mmHg 89%
    02:00 +20°C° 0 mm 1 mps 733 mmHg 89%
    03:00 +20°C° 0 mm 1 mps 733 mmHg 89%
    04:00 +20°C° 0 mm 1 mps 733 mmHg 89%
    05:00 +18°C° 0 mm 0 mps 733 mmHg 88%
    06:00 +20°C° 0 mm 0 mps 733 mmHg 84%
    07:00 +21°C° 0 mm 0 mps 734 mmHg 80%
    08:00 +23°C° 0 mm 0 mps 734 mmHg 76%
    09:00 +26°C° 0 mm 1 mps 734 mmHg 72%
    10:00 +27°C° 0 mm 1 mps 734 mmHg 68%
    11:00 +29°C° 0 mm 1 mps 734 mmHg 65%
    12:00 +29°C° 0.9 mm 1 mps 734 mmHg 65%
    13:00 +29°C° 0.9 mm 1 mps 734 mmHg 66%
    14:00 +29°C° 0.9 mm 1 mps 733 mmHg 67%
    15:00 +29°C° 0.6 mm 1 mps 733 mmHg 69%
    16:00 +29°C° 0.6 mm 1 mps 733 mmHg 71%
    17:00 +29°C° 0.6 mm 1 mps 733 mmHg 74%
    18:00 +27°C° 0.7 mm 1 mps 733 mmHg 77%
    19:00 +26°C° 0.7 mm 1 mps 733 mmHg 81%
    20:00 +24°C° 0.7 mm 1 mps 733 mmHg 85%
    21:00 +24°C° 0 mm 1 mps 733 mmHg 85%
    22:00 +23°C° 0 mm 1 mps 733 mmHg 85%
    23:00 +22°C° 0 mm 1 mps 733 mmHg 86%

    22 June, Saturday

    Time Temperature Precipitation Wind Pressure Humidity
    00:00 +21°C° 0.3 mm 1 mps 733 mmHg 87%
    01:00 +21°C° 0.3 mm 1 mps 733 mmHg 88%
    02:00 +20°C° 0.3 mm 1 mps 733 mmHg 89%
    03:00 +20°C° 0 mm 1 mps 733 mmHg 90%
    04:00 +20°C° 0 mm 1 mps 733 mmHg 90%
    05:00 +19°C° 0 mm 1 mps 733 mmHg 91%
    06:00 +21°C° 0.3 mm 1 mps 733 mmHg 89%
    07:00 +21°C° 0.3 mm 2 mps 734 mmHg 88%
    08:00 +23°C° 0.3 mm 2 mps 734 mmHg 86%
    09:00 +25°C° 0.9 mm 2 mps 734 mmHg 82%
    10:00 +26°C° 0.9 mm 1 mps 734 mmHg 78%
    11:00 +28°C° 0.9 mm 1 mps 734 mmHg 74%
    12:00 +27°C° 1 mm 2 mps 734 mmHg 74%
    13:00 +27°C° 1 mm 2 mps 734 mmHg 75%
    14:00 +27°C° 1 mm 3 mps 733 mmHg 75%
    15:00 +26°C° 0.7 mm 2 mps 733 mmHg 78%
    16:00 +26°C° 0.7 mm 2 mps 733 mmHg 80%
    17:00 +25°C° 0.7 mm 1 mps 733 mmHg 83%
    18:00 +24°C° 0.2 mm 1 mps 733 mmHg 85%
    19:00 +23°C° 0.2 mm 1 mps 733 mmHg 87%
    20:00 +22°C° 0.2 mm 1 mps 733 mmHg 89%
    21:00 +22°C° 0 mm 1 mps 733 mmHg 89%
    22:00 +21°C° 0 mm 1 mps 733 mmHg 89%
    23:00 +21°C° 0 mm 1 mps 733 mmHg 89%

    23 June, Sunday

    Time Temperature Precipitation Wind Pressure Humidity
    00:00 +20°C° 0.2 mm 1 mps 733 mmHg 90%
    01:00 +20°C° 0.2 mm 1 mps 733 mmHg 90%
    02:00 +19°C° 0.2 mm 1 mps 733 mmHg 91%
    03:00 +19°C° 0 mm 1 mps 733 mmHg 91%
    04:00 +19°C° 0 mm 1 mps 733 mmHg 90%
    05:00 +19°C° 0 mm 1 mps 733 mmHg 90%
    06:00 +21°C° 0.1 mm 1 mps 733 mmHg 86%
    07:00 +22°C° 0.1 mm 1 mps 733 mmHg 82%
    08:00 +22°C° 0.1 mm 0 mps 734 mmHg 78%
    09:00 +25°C° 0.5 mm 1 mps 734 mmHg 73%
    10:00 +27°C° 0.5 mm 1 mps 733 mmHg 67%
    11:00 +28°C° 0.5 mm 1 mps 733 mmHg 62%
    12:00 +28°C° 0.6 mm 1 mps 733 mmHg 61%
    13:00 +29°C° 0.6 mm 2 mps 733 mmHg 60%
    14:00 +29°C° 0.6 mm 2 mps 733 mmHg 59%
    15:00 +29°C° 0.5 mm 3 mps 733 mmHg 62%
    16:00 +28°C° 0.5 mm 3 mps 733 mmHg 65%
    17:00 +28°C° 0.5 mm 3 mps 733 mmHg 68%
    18:00 +25°C° 0.7 mm 4 mps 733 mmHg 76%
    19:00 +22°C° 0.7 mm 4 mps 733 mmHg 84%
    20:00 +20°C° 0.7 mm 5 mps 733 mmHg 92%
    21:00 +19°C° 0.3 mm 4 mps 733 mmHg 93%
    22:00 +18°C° 0.3 mm 4 mps 734 mmHg 94%
    23:00 +17°C° 0.3 mm 3 mps 734 mmHg 95%

    24 June, Monday

    Time Temperature Precipitation Wind Pressure Humidity
    00:00 +17°C° 0.1 mm 3 mps 734 mmHg 95%
    01:00 +17°C° 0.1 mm 3 mps 734 mmHg 94%
    02:00 +16°C° 0.1 mm 2 mps 735 mmHg 94%
    03:00 +16°C° 0 mm 2 mps 735 mmHg 94%
    04:00 +16°C° 0 mm 2 mps 735 mmHg 94%
    05:00 +16°C° 0 mm 2 mps 735 mmHg 94%
    06:00 +17°C° 0 mm 3 mps 735 mmHg 90%
    07:00 +18°C° 0 mm 4 mps 736 mmHg 87%
    08:00 +19°C° 0 mm 4 mps 736 mmHg 83%
    09:00 +19°C° 0 mm 5 mps 736 mmHg 83%
    10:00 +17°C° 0 mm 5 mps 737 mmHg 82%
    11:00 +17°C° 0 mm 6 mps 737 mmHg 81%
    12:00 +17°C° 0.1 mm 6 mps 737 mmHg 84%
    13:00 +16°C° 0.1 mm 6 mps 737 mmHg 86%
    14:00 +16°C° 0.1 mm 6 mps 737 mmHg 88%
    15:00 +15°C° 0.2 mm 6 mps 737 mmHg 90%
    16:00 +15°C° 0.2 mm 6 mps 737 mmHg 92%
    17:00 +14°C° 0.2 mm 6 mps 738 mmHg 94%
    18:00 +14°C° 0 mm 5 mps 738 mmHg 94%
    19:00 +14°C° 0 mm 4 mps 738 mmHg 94%
    20:00 +14°C° 0 mm 4 mps 738 mmHg 94%
    21:00 +14°C° 0.2 mm 4 mps 739 mmHg 95%
    22:00 +14°C° 0.2 mm 4 mps 739 mmHg 95%
    23:00 +14°C° 0.2 mm 4 mps 739 mmHg 96%
    Show more